Weather History for Lucknow, India

Change the Weather History Date:

Tuesday, October 23, 2012

  Actual Average Record
Temperature  
Mean Temperature 73 °F -  
Max Temperature 87 °F 80 °F 93 °F (2004)
Min Temperature 59 °F 61 °F 59 °F (2012)
Cooling Degree Days 8    
Growing Degree Days 23 (Base 50)    
Moisture  
Dew Point 61 °F    
Average Humidity 63    
Maximum Humidity 88    
Minimum Humidity 38    
Precipitation  
Precipitation 0.00 in - - ()
Sea Level Pressure  
Sea Level Pressure 29.92 in    
Wind  
Wind Speed 2 mph ()    
Max Wind Speed 7 mph    
Max Gust Speed -    
Visibility 2.1 miles    
Events      
Averages and records for this station are not official NWS values.
T = Trace of Precipitation, MM = Missing Value Source: Averaged Metar Reports

Daily Weather History Graph

Daily Weather History Graph

Search for Another Location

Airport:

Trip Planner

Search our weather history database for the weather conditions in past years. The results will help you decide how hot, cold, wet, or windy it might be!

Date:

Astronomy

Oct. 23, 2012 Rise Set
Actual Time 6:10 AM IST 5:30 PM IST
Civil Twilight 5:46 AM IST 5:54 PM IST
Nautical Twilight 5:19 AM IST 6:21 PM IST
Astronomical Twilight 4:52 AM IST 6:48 PM IST
Moon 1:26 PM IST (10/23) No Moon Set
Length of Visible Light 12h 07m
Length of Day
11h 20m
Waxing Gibbous, 62% of the Moon is Illuminated
Oct 23
Waxing Gibbous
Oct 30
Full
Nov 7
Last Quarter
Nov 14
New
Nov 20
First Quarter

Hourly Weather History & Observations

Time (IST) Temp. Heat Index Dew Point Humidity Pressure Visibility Wind Dir Wind Speed Gust Speed Precip Events Conditions
12:00 AM 68.0 °F - 62.6 °F 83% 29.95 in 1.6 mi Calm Calm - N/A   Mist
1:00 AM 66.2 °F - 60.8 °F 83% 29.92 in 1.6 mi Calm Calm - N/A   Mist
2:00 AM 66.2 °F - 60.8 °F 83% 29.92 in 1.6 mi Calm Calm - N/A   Mist
3:00 AM 66.2 °F - 62.6 °F 88% 29.92 in 1.6 mi Calm Calm - N/A   Mist
4:00 AM 66.2 °F - 62.6 °F 88% 29.92 in 1.2 mi Calm Calm - N/A   Mist
5:00 AM 68.0 °F - 59.0 °F 73% 29.92 in 1.6 mi West 3.5 mph - N/A   Mist
5:30 AM 67 °F - 60 °F 73% 29.95 in 1 mi Calm Calm - -   Mist
5:30 AM 66.2 °F - 60.8 °F 83% 29.92 in 1.6 mi Calm Calm - N/A   Mist
6:30 AM 64.4 °F - 59.0 °F 83% 29.95 in 0.9 mi Variable 2.3 mph - N/A   Mist
7:00 AM 64.4 °F - 59.0 °F 83% 29.98 in 1.1 mi Variable 2.3 mph - N/A   Mist
7:30 AM 66.2 °F - 60.8 °F 83% 29.98 in 1.0 mi Variable 2.3 mph - N/A   Mist
8:00 AM 68.0 °F - 60.8 °F 78% 29.98 in 1.0 mi Variable 2.3 mph - N/A   Mist
8:30 AM 72 °F - 60 °F 58% 30.01 in 1 mi West 3.5 mph - -   Mist
8:30 AM 71.6 °F - 60.8 °F 69% 29.98 in 1.0 mi West 3.5 mph - N/A   Mist
9:00 AM 73.4 °F - 60.8 °F 65% 30.01 in 1.1 mi West 4.6 mph - N/A   Mist
9:30 AM 77.0 °F - 60.8 °F 57% 30.01 in 1.4 mi West 4.6 mph - N/A   Mist
10:30 AM 82.4 °F 83.4 °F 62.6 °F 51% 29.98 in 1.9 mi West 4.6 mph - N/A   Haze
11:00 AM 82.4 °F 83.4 °F 62.6 °F 51% 29.98 in 1.9 mi West 4.6 mph - N/A   Haze
11:30 AM 86.0 °F 85.4 °F 59.0 °F 40% 29.98 in 2.2 mi West 4.6 mph - N/A   Haze
12:00 PM 86.0 °F 85.4 °F 59.0 °F 40% 29.95 in 2.5 mi West 4.6 mph - N/A   Haze
12:30 PM 86.0 °F 85.4 °F 59.0 °F 40% 29.92 in 2.5 mi West 6.9 mph - N/A   Haze
1:30 PM 87.8 °F 87.1 °F 59.0 °F 38% 29.89 in 3.1 mi NW 5.8 mph - N/A   Haze
2:00 PM 87.8 °F 87.1 °F 59.0 °F 38% 29.89 in 3.1 mi NNW 6.9 mph - N/A   Haze
2:30 PM 87.8 °F 87.1 °F 59.0 °F 38% 29.86 in 3.1 mi NW 6.9 mph - N/A   Haze
3:00 PM 87.8 °F 87.1 °F 59.0 °F 38% 29.86 in 3.1 mi NW 6.9 mph - N/A   Haze
3:30 PM 87.8 °F 87.1 °F 59.0 °F 38% 29.86 in 3.1 mi NW 6.9 mph - N/A   Haze
4:00 PM 86.0 °F 86.1 °F 60.8 °F 43% 29.86 in 3.1 mi NW 6.9 mph - N/A   Haze
4:30 PM 86.0 °F 86.1 °F 60.8 °F 43% 29.86 in 3.1 mi NW 5.8 mph - N/A   Haze
5:00 PM 84.2 °F 85.0 °F 62.6 °F 48% 29.86 in 2.5 mi Variable 2.3 mph - N/A   Haze
5:30 PM 84.2 °F 87.3 °F 68.0 °F 58% 29.86 in 2.5 mi Variable 2.3 mph - N/A   Haze
6:00 PM 80.6 °F 83.2 °F 68.0 °F 65% 29.86 in 2.5 mi Calm Calm - N/A   Haze
6:30 PM 77.0 °F - 66.2 °F 69% 29.86 in 2.5 mi Calm Calm - N/A   Haze
7:00 PM 75.2 °F - 64.4 °F 69% 29.89 in 2.5 mi Calm Calm - N/A   Haze
7:30 PM 75.2 °F - 62.6 °F 65% 29.89 in 2.5 mi Variable 2.3 mph - N/A   Haze
8:00 PM 75.2 °F - 62.6 °F 65% 29.89 in 2.5 mi Variable 2.3 mph - N/A   Haze
8:30 PM 75.2 °F - 60.8 °F 61% 29.89 in 2.5 mi WSW 4.6 mph - N/A   Haze
9:00 PM 73.4 °F - 60.8 °F 65% 29.89 in 2.5 mi Calm Calm - N/A   Haze
10:00 PM 69.8 °F - 62.6 °F 78% 29.89 in 2.5 mi Calm Calm - N/A   Haze
11:00 PM 69.8 °F - 64.4 °F 83% 29.89 in 2.5 mi Calm Calm - N/A   Haze